• In Portugal
  • List of Countries
  • For 7 days
  • Water Temperature
  • Satellite Maps
  • Weather Map
  • Weather Widgets
  • user-avatar
    Login

    Hourly Weather Monte Carlo

    Today, 20 October, Friday

    Time Temperature Precipitation Wind Pressure Humidity
    00:00 +15°C° 0 mm 8 mps 748 mmHg 73%
    01:00 +15°C° 0 mm 8 mps 748 mmHg 73%
    02:00 +15°C° 0 mm 7 mps 749 mmHg 72%
    03:00 +14°C° 0 mm 7 mps 749 mmHg 71%
    04:00 +14°C° 0 mm 7 mps 749 mmHg 69%
    05:00 +14°C° 0 mm 6 mps 749 mmHg 66%
    06:00 +14°C° 0 mm 7 mps 750 mmHg 60%
    07:00 +17°C° 0 mm 6 mps 750 mmHg 55%
    08:00 +20°C° 0 mm 6 mps 750 mmHg 49%
    09:00 +22°C° 0 mm 5 mps 750 mmHg 43%
    10:00 +23°C° 0 mm 5 mps 750 mmHg 42%
    11:00 +25°C° 0 mm 5 mps 750 mmHg 42%
    12:00 +26°C° 0 mm 5 mps 750 mmHg 41%
    13:00 +25°C° 0 mm 4 mps 750 mmHg 46%
    14:00 +25°C° 0 mm 4 mps 750 mmHg 50%
    15:00 +23°C° 0 mm 4 mps 750 mmHg 54%
    16:00 +21°C° 0 mm 3 mps 751 mmHg 65%
    17:00 +19°C° 0 mm 3 mps 751 mmHg 75%
    18:00 +17°C° 0 mm 2 mps 751 mmHg 86%
    19:00 +17°C° 0 mm 2 mps 751 mmHg 84%
    20:00 +17°C° 0 mm 2 mps 751 mmHg 83%
    21:00 +18°C° 0 mm 1 mps 752 mmHg 81%
    22:00 +18°C° 0 mm 1 mps 752 mmHg 80%
    23:00 +18°C° 0 mm 1 mps 752 mmHg 78%

    Tomorrow, 21 October, Saturday

    Time Temperature Precipitation Wind Pressure Humidity
    00:00 +16°C° 0 mm 1 mps 752 mmHg 76%
    01:00 +16°C° 0 mm 1 mps 752 mmHg 75%
    02:00 +16°C° 0 mm 1 mps 751 mmHg 73%
    03:00 +16°C° 0 mm 1 mps 751 mmHg 72%
    04:00 +16°C° 0 mm 1 mps 751 mmHg 71%
    05:00 +16°C° 0 mm 1 mps 752 mmHg 70%
    06:00 +16°C° 0 mm 1 mps 752 mmHg 69%
    07:00 +19°C° 0 mm 2 mps 752 mmHg 61%
    08:00 +21°C° 0 mm 2 mps 752 mmHg 53%
    09:00 +25°C° 0 mm 2 mps 752 mmHg 46%
    10:00 +25°C° 0 mm 3 mps 752 mmHg 45%
    11:00 +26°C° 0 mm 4 mps 752 mmHg 44%
    12:00 +27°C° 0 mm 4 mps 752 mmHg 43%
    13:00 +26°C° 0 mm 5 mps 751 mmHg 46%
    14:00 +26°C° 0 mm 5 mps 751 mmHg 50%
    15:00 +24°C° 0 mm 6 mps 750 mmHg 53%
    16:00 +22°C° 0 mm 5 mps 750 mmHg 63%
    17:00 +20°C° 0 mm 5 mps 750 mmHg 73%
    18:00 +17°C° 0 mm 5 mps 750 mmHg 83%
    19:00 +17°C° 0 mm 5 mps 751 mmHg 84%
    20:00 +17°C° 0 mm 5 mps 751 mmHg 84%
    21:00 +17°C° 0 mm 5 mps 751 mmHg 84%
    22:00 +17°C° 0 mm 5 mps 751 mmHg 82%
    23:00 +17°C° 0 mm 5 mps 750 mmHg 80%

    Day after tomorrow, 22 October, Sunday

    Time Temperature Precipitation Wind Pressure Humidity
    00:00 +17°C° 0 mm 6 mps 750 mmHg 78%
    01:00 +16°C° 0 mm 6 mps 750 mmHg 76%
    02:00 +16°C° 0 mm 7 mps 750 mmHg 74%
    03:00 +16°C° 0 mm 7 mps 749 mmHg 73%
    04:00 +15°C° 0 mm 8 mps 749 mmHg 72%
    05:00 +13°C° 0 mm 8 mps 749 mmHg 71%
    06:00 +13°C° 0 mm 9 mps 749 mmHg 71%
    07:00 +16°C° 0 mm 10 mps 749 mmHg 61%
    08:00 +18°C° 0 mm 10 mps 749 mmHg 52%
    09:00 +19°C° 0 mm 10 mps 749 mmHg 43%
    10:00 +21°C° 0 mm 11 mps 748 mmHg 39%
    11:00 +22°C° 0 mm 11 mps 748 mmHg 36%
    12:00 +23°C° 0 mm 11 mps 747 mmHg 32%
    13:00 +22°C° 0 mm 11 mps 747 mmHg 32%
    14:00 +22°C° 0 mm 11 mps 747 mmHg 32%
    15:00 +21°C° 0 mm 11 mps 746 mmHg 32%
    16:00 +18°C° 0 mm 11 mps 747 mmHg 35%
    17:00 +16°C° 0 mm 11 mps 747 mmHg 39%
    18:00 +13°C° 0 mm 11 mps 747 mmHg 42%
    19:00 +13°C° 0 mm 10 mps 747 mmHg 42%
    20:00 +12°C° 0 mm 9 mps 748 mmHg 42%
    21:00 +12°C° 0 mm 8 mps 748 mmHg 42%
    22:00 +12°C° 0 mm 7 mps 748 mmHg 40%
    23:00 +11°C° 0 mm 6 mps 748 mmHg 38%

    23 October, Monday

    Time Temperature Precipitation Wind Pressure Humidity
    00:00 +12°C° 0 mm 5 mps 748 mmHg 36%
    01:00 +12°C° 0 mm 5 mps 748 mmHg 35%
    02:00 +12°C° 0 mm 4 mps 748 mmHg 33%
    03:00 +12°C° 0 mm 4 mps 748 mmHg 32%
    04:00 +12°C° 0 mm 3 mps 749 mmHg 31%
    05:00 +12°C° 0 mm 3 mps 749 mmHg 31%
    06:00 +11°C° 0 mm 3 mps 749 mmHg 30%
    07:00 +15°C° 0 mm 2 mps 749 mmHg 28%
    08:00 +18°C° 0 mm 2 mps 749 mmHg 25%
    09:00 +20°C° 0 mm 2 mps 750 mmHg 22%
    10:00 +21°C° 0 mm 2 mps 750 mmHg 22%
    11:00 +22°C° 0 mm 3 mps 749 mmHg 21%
    12:00 +24°C° 0 mm 3 mps 749 mmHg 20%
    13:00 +23°C° 0 mm 4 mps 749 mmHg 23%
    14:00 +23°C° 0 mm 4 mps 749 mmHg 25%
    15:00 +22°C° 0 mm 4 mps 749 mmHg 27%
    16:00 +20°C° 0 mm 4 mps 749 mmHg 32%
    17:00 +18°C° 0 mm 3 mps 749 mmHg 37%
    18:00 +16°C° 0 mm 3 mps 749 mmHg 42%
    19:00 +16°C° 0 mm 3 mps 749 mmHg 41%
    20:00 +14°C° 0 mm 3 mps 750 mmHg 40%
    21:00 +15°C° 0 mm 2 mps 750 mmHg 39%
    22:00 +15°C° 0 mm 2 mps 750 mmHg 39%
    23:00 +15°C° 0 mm 2 mps 749 mmHg 38%

    24 October, Tuesday

    Time Temperature Precipitation Wind Pressure Humidity
    00:00 +15°C° 0 mm 2 mps 749 mmHg 37%
    01:00 +15°C° 0 mm 2 mps 749 mmHg 38%
    02:00 +15°C° 0 mm 2 mps 749 mmHg 38%
    03:00 +15°C° 0 mm 2 mps 749 mmHg 39%
    04:00 +15°C° 0 mm 2 mps 749 mmHg 39%
    05:00 +15°C° 0 mm 2 mps 749 mmHg 40%
    06:00 +15°C° 0 mm 2 mps 749 mmHg 40%
    07:00 +18°C° 0 mm 2 mps 749 mmHg 35%
    08:00 +21°C° 0 mm 2 mps 749 mmHg 31%
    09:00 +25°C° 0 mm 2 mps 750 mmHg 26%
    10:00 +25°C° 0 mm 2 mps 750 mmHg 27%
    11:00 +26°C° 0 mm 3 mps 750 mmHg 27%
    12:00 +27°C° 0 mm 3 mps 750 mmHg 28%
    13:00 +26°C° 0 mm 2 mps 750 mmHg 32%
    14:00 +25°C° 0 mm 2 mps 750 mmHg 36%
    15:00 +24°C° 0 mm 1 mps 750 mmHg 40%
    16:00 +22°C° 0 mm 1 mps 750 mmHg 46%
    17:00 +19°C° 0 mm 2 mps 751 mmHg 53%
    18:00 +17°C° 0 mm 2 mps 751 mmHg 60%
    19:00 +18°C° 0 mm 1 mps 751 mmHg 57%
    20:00 +18°C° 0 mm 1 mps 752 mmHg 55%
    21:00 +18°C° 0 mm 1 mps 752 mmHg 53%
    22:00 +17°C° 0 mm 2 mps 753 mmHg 52%
    23:00 +17°C° 0 mm 2 mps 753 mmHg 50%

    25 October, Wednesday

    Time Temperature Precipitation Wind Pressure Humidity
    00:00 +16°C° 0 mm 3 mps 753 mmHg 49%
    01:00 +16°C° 0 mm 3 mps 753 mmHg 49%
    02:00 +16°C° 0 mm 3 mps 753 mmHg 48%
    03:00 +16°C° 0 mm 3 mps 753 mmHg 48%
    04:00 +16°C° 0 mm 3 mps 753 mmHg 48%
    05:00 +16°C° 0 mm 3 mps 753 mmHg 49%
    06:00 +16°C° 0 mm 3 mps 754 mmHg 49%
    07:00 +18°C° 0 mm 3 mps 754 mmHg 44%
    08:00 +21°C° 0 mm 3 mps 754 mmHg 38%
    09:00 +25°C° 0 mm 3 mps 755 mmHg 32%
    10:00 +25°C° 0 mm 3 mps 755 mmHg 32%
    11:00 +26°C° 0 mm 3 mps 755 mmHg 31%
    12:00 +27°C° 0 mm 3 mps 754 mmHg 30%
    13:00 +26°C° 0 mm 3 mps 754 mmHg 34%
    14:00 +25°C° 0 mm 3 mps 754 mmHg 37%
    15:00 +24°C° 0 mm 2 mps 754 mmHg 40%
    16:00 +21°C° 0 mm 2 mps 754 mmHg 47%
    17:00 +19°C° 0 mm 2 mps 755 mmHg 54%
    18:00 +18°C° 0 mm 1 mps 755 mmHg 61%
    19:00 +18°C° 0 mm 1 mps 755 mmHg 59%
    20:00 +17°C° 0 mm 2 mps 755 mmHg 57%
    21:00 +17°C° 0 mm 2 mps 755 mmHg 55%
    22:00 +17°C° 0 mm 2 mps 755 mmHg 54%
    23:00 +17°C° 0 mm 2 mps 755 mmHg 53%
    Show more